STARLINK-33809, 63508

Orbit data source: Space-Track

STARLINK-33809, 63508 is a payload satellite owned by SpaceX/Seattle (US) in LEO that was launched on Mon, 07 Apr 2025 UTC via an FALCON 9 launch vehicle from the Air Force Western Test Range (AFWTR). Payload-class satellites include a variety of spacecraft equipped with specific instruments for various scientific and technological missions. These include communications satellites like Starlink; space stations such as the ISS; scientific satellites like the Hubble; Earth observation satellites from companies like Planet Labs, Umbra, and HawkEye 360; GPS; miniature CubeSats for education and research; and military/defense satellites.

Loading next visibility...
Identifier
63508, 2025-071R
Orbit
LEO
Last TLE update
1 day ago
Origin
Manufacturer
SpaceX/Seattle
Mission
Operational spacecraft
Bus & Motor
STARLINK V2MO, Unknown motor
Mass
575 kg wet, ~530 kg dry
Launch date (UTC)
2025-04-07 (3 weeks ago)
Launch vehicle
FALCON 9
Launch site
Air Force Western Test Range (AFWTR)
Object type
Payload
Rocket body
Debris
Shape & HBR
Unknown
Radar Cross Section
Large (>1 m²)

Expand to show TLE details & history

TLE from 1 day ago
0 STARLINK-33809
1 63508U 25071R   25119.21152689 -.00002334  00000-0 -11644-4 0  9993
2 63508  53.1584 166.1935 0001249 121.1207 238.9936 15.74182406  4485
Epoch: 2025-04-29T05:04Z
Definitive object data (Epoch: 2025-04-29T05:04:35.923Z)
Latitude
0.00003°
Longitude
-127.3706°
Altitude
348.308 km
Speed
7.701 km/s
True Right ascension
11h 04m 46s
True Declination
0° 00' 00"
Sunlit
Object was in full shadow at TLE epoch
Visualization TLE readout
Latitude
12.09372°
Longitude
37.31161°
Altitude
346.473 km
Speed
7.704 km/s
Apparent Right ascension
01h 09m 37s
Apparent Declination
-25° 23' 03"
Sunlit
Object is in daylight
Visualization observer readout
Local Sidereal Time
18:17:31
Azimuth
102.686° ESE
Elevation
-25.548°
Doppler factor
1
Orbital elements
Apogee altitude
348.06 km
Perigee altitude
346.38 km
Semi-major axis
6,725.357 km
Eccentricity
0.0001249
Inclination
53.1584°
RAAN
166.1935°
Arg. of periapsis
121.1207°
True anomaly
238.98133°
Mean anomaly
238.9936°
Eccentric anomaly
238.98747°
Mean motion
3.93523 °/min
BSTAR
-0.000011644
Orbital period
91.48 mins
Loading maneuver chart data...
Loading SW <> Apogee altitude chart data...
Loading historical data...
Loading historical data...
Loading historical data...
Loading historical data...
Loading historical data...
Loading historical data...
Loading historical data...

STARLINK-33809 Visibility forecast

Observer location: undefined°, undefined°

Span
Click to sort rows by Start time (UTC) header in descending order
Start Az.
Max El. time (UTC)
Max El. Az.
Max El.
End time (UTC)
End Az.
4 mins2025-04-30 12:02:27.683Z329.376° NNW2025-04-30 12:04:27.683Z52.268° ENE34.292°2025-04-30 12:06:27.683Z107.274° ESE
|